Weather History for Chevak, AK

Change the Weather History Date:

Thursday, June 27, 2013

  Actual Average (PAHP) Record (PAHP)
Temperature  
Mean Temperature 44 °F -  
Max Temperature 50 °F 51 °F 77 °F (2004)
Min Temperature 41 °F 43 °F 37 °F (2001)
Degree Days  
Heating Degree Days 20    
Moisture  
Dew Point 42 °F    
Average Humidity 95    
Maximum Humidity 100    
Minimum Humidity 80    
Precipitation  
Precipitation 0.00 in - - ()
Sea Level Pressure  
Sea Level Pressure 30.13 in    
Wind  
Wind Speed 11 mph (WSW)    
Max Wind Speed 15 mph    
Max Gust Speed -    
Visibility 4 miles    
Events Fog    
Averages and records for this station are not official NWS values.
T = Trace of Precipitation, MM = Missing Value Source: NWS Daily Summary

Daily Weather History Graph

Daily Weather History Graph

Search for Another Location

Airport:

Trip Planner

Search our weather history database for the weather conditions in past years. The results will help you decide how hot, cold, wet, or windy it might be!

Date:

Astronomy

Jun. 27, 2013 Rise Set
Actual Time 5:22 AM AKDT 12:48 AM AKDT
Civil Twilight 3:37 AM AKDT 2:33 AM AKDT
Nautical Twilight Sun does not rise Sun does not rise
Astronomical Twilight Sun does not rise Sun does not rise
Moon 1:34 AM AKDT (6/27) 12:31 PM AKDT (6/27)
Length of Visible Light 22h 55m
Length of Day
19h 26m
Waning Gibbous, 75% of the Moon is Illuminated
Jun 27
Waning Gibbous
Jun 29
Last Quarter
Jul 7
New
Jul 15
First Quarter
Jul 22
Full

Hourly Weather History & Observations

Time (AKDT) Temp. Windchill Dew Point Humidity Pressure Visibility Wind Dir Wind Speed Gust Speed Precip Events Conditions
12:03 AM 42.8 °F 37.0 °F 41.0 °F 93% 30.10 in 1.2 mi West 10.4 mph - N/A   Overcast
12:13 AM 42.8 °F 36.6 °F 41.0 °F 93% 30.10 in 1.0 mi West 11.5 mph - N/A   Overcast
12:17 AM 42.8 °F 37.0 °F 41.0 °F 93% 30.10 in 0.8 mi West 10.4 mph - N/A   Overcast
12:21 AM 41.0 °F 33.5 °F 41.0 °F 100% 30.10 in 0.5 mi West 13.8 mph - N/A Fog Fog
12:38 AM 42.8 °F 37.0 °F 41.0 °F 93% 30.10 in 0.8 mi West 10.4 mph - N/A   Overcast
12:49 AM 41.0 °F 33.9 °F 41.0 °F 100% 30.10 in 1.0 mi West 12.7 mph - N/A   Overcast
12:52 AM 41.0 °F 34.3 °F 41.0 °F 100% 30.11 in 0.8 mi West 11.5 mph - N/A   Overcast
12:57 AM 41.0 °F 34.7 °F 41.0 °F 100% 30.11 in 1.2 mi West 10.4 mph - N/A   Overcast
1:03 AM 41.0 °F 34.3 °F 41.0 °F 100% 30.11 in 2.5 mi West 11.5 mph - N/A   Overcast
1:11 AM 41.0 °F 34.3 °F 41.0 °F 100% 30.11 in 1.5 mi West 11.5 mph - N/A   Overcast
1:17 AM 41.0 °F 34.7 °F 41.0 °F 100% 30.11 in 1.0 mi West 10.4 mph - N/A   Overcast
1:29 AM 41.0 °F 34.7 °F 41.0 °F 100% 30.12 in 1.2 mi West 10.4 mph - N/A   Overcast
1:32 AM 41.0 °F 35.2 °F 41.0 °F 100% 30.12 in 1.0 mi West 9.2 mph - N/A   Overcast
1:37 AM 41.0 °F 35.2 °F 41.0 °F 100% 30.12 in 0.8 mi West 9.2 mph - N/A   Overcast
1:45 AM 41.0 °F 35.8 °F 41.0 °F 100% 30.13 in 0.5 mi West 8.1 mph - N/A Fog Fog
1:57 AM 41.0 °F 35.8 °F 41.0 °F 100% 30.12 in 0.5 mi West 8.1 mph - N/A Fog Fog
2:06 AM 41.0 °F 35.8 °F 41.0 °F 100% 30.12 in 0.8 mi West 8.1 mph - N/A   Overcast
2:10 AM 41.0 °F 34.7 °F 41.0 °F 100% 30.12 in 1.0 mi West 10.4 mph - N/A   Overcast
2:15 AM 41.0 °F 34.3 °F 41.0 °F 100% 30.12 in 1.2 mi West 11.5 mph - N/A   Overcast
2:23 AM 41.0 °F 34.3 °F 41.0 °F 100% 30.12 in 1.0 mi WSW 11.5 mph - N/A   Overcast
2:31 AM 41.0 °F 33.9 °F 41.0 °F 100% 30.11 in 0.8 mi West 12.7 mph - N/A   Overcast
2:57 AM 41.0 °F 34.3 °F 41.0 °F 100% 30.11 in 1.0 mi West 11.5 mph - N/A   Overcast
3:08 AM 41.0 °F 34.3 °F 41.0 °F 100% 30.11 in 0.8 mi WSW 11.5 mph - N/A   Overcast
3:57 AM 41.0 °F 33.9 °F 41.0 °F 100% 30.12 in 0.8 mi West 12.7 mph - N/A   Overcast
4:34 AM 41.0 °F 34.7 °F 39.2 °F 93% 30.11 in 0.5 mi West 10.4 mph - N/A Fog Fog
4:42 AM 41.0 °F 34.7 °F 41.0 °F 100% 30.11 in 0.2 mi WSW 10.4 mph - N/A Fog Fog
4:57 AM 41.0 °F 35.8 °F 39.9 °F 96% 30.13 in 0.2 mi WSW 8.1 mph - N/A Fog Fog
5:57 AM 41.0 °F 35.8 °F 41.0 °F 100% 30.13 in 0.2 mi WSW 8.1 mph - N/A Fog Fog
6:39 AM 41.0 °F 36.4 °F 41.0 °F 100% 30.12 in 0.5 mi SW 6.9 mph - N/A Fog Fog
6:43 AM 41.0 °F 36.4 °F 41.0 °F 100% 30.12 in 0.2 mi SW 6.9 mph - N/A Fog Fog
6:53 AM 41.0 °F 34.7 °F 41.0 °F 100% 30.12 in - WSW 10.4 mph - N/A   Overcast
6:57 AM 41.0 °F 34.7 °F 41.0 °F 100% 30.13 in - WSW 10.4 mph - N/A   Overcast
7:01 AM 41.0 °F 34.3 °F 41.0 °F 100% 30.13 in 0.5 mi WSW 11.5 mph - N/A Fog Fog
7:04 AM 41.0 °F 34.7 °F 41.0 °F 100% 30.13 in 0.2 mi WSW 10.4 mph - N/A Fog Fog
7:16 AM 41.0 °F 33.9 °F 41.0 °F 100% 30.13 in 0.5 mi WSW 12.7 mph - N/A Fog Fog
7:57 AM 42.1 °F 36.1 °F 41.0 °F 96% 30.14 in 0.5 mi WSW 10.4 mph - N/A Fog Fog
8:30 AM 42.8 °F 37.0 °F 42.8 °F 100% 30.14 in - SW 10.4 mph - N/A   Overcast
8:38 AM 42.8 °F 36.2 °F 42.8 °F 100% 30.15 in 0.5 mi WSW 12.7 mph - N/A Fog Fog
8:45 AM 42.8 °F 37.0 °F 42.8 °F 100% 30.15 in 0.8 mi SW 10.4 mph - N/A   Overcast
8:57 AM 43.0 °F 38.2 °F 42.1 °F 97% 30.16 in 0.8 mi SSW 8.1 mph - N/A   Overcast
9:07 AM 42.8 °F 38.0 °F 42.8 °F 100% 30.14 in 0.5 mi SW 8.1 mph - N/A Fog Fog
9:12 AM 42.8 °F 38.6 °F 42.8 °F 100% 30.14 in 0.8 mi SSW 6.9 mph - N/A   Overcast
9:19 AM 42.8 °F 38.6 °F 42.8 °F 100% 30.14 in - SSW 6.9 mph - N/A   Overcast
9:27 AM 42.8 °F 38.6 °F 42.8 °F 100% 30.14 in 0.8 mi South 6.9 mph - N/A   Overcast
9:48 AM 42.8 °F 36.6 °F 42.8 °F 100% 30.15 in 1.2 mi SSW 11.5 mph - N/A   Overcast
9:57 AM 42.8 °F 36.6 °F 42.8 °F 100% 30.15 in 1.0 mi SW 11.5 mph - N/A   Overcast
9:59 AM 42.8 °F 38.0 °F 42.8 °F 100% 30.15 in 0.8 mi SW 8.1 mph - N/A   Overcast
10:01 AM 43.0 °F 38.2 °F 43.0 °F 100% 30.16 in 0.8 mi SW 8.1 mph - N/A   Overcast
10:22 AM 42.8 °F 37.5 °F 42.8 °F 100% 30.14 in 1.0 mi SSW 9.2 mph - N/A   Overcast
10:31 AM 44.6 °F 40.2 °F 42.8 °F 93% 30.15 in 1.2 mi SW 8.1 mph - N/A   Overcast
10:57 AM 42.8 °F 37.5 °F 42.8 °F 100% 30.15 in 2.5 mi SSW 9.2 mph - N/A   Overcast
11:00 AM 42.8 °F 38.0 °F 42.8 °F 100% 30.14 in 3.0 mi SSW 8.1 mph - N/A   Overcast
11:46 AM 44.1 °F 39.0 °F 44.1 °F 100% 30.15 in 10.0 mi SSW 9.2 mph - N/A   Overcast
11:57 AM 45.0 °F 39.7 °F 44.1 °F 97% 30.16 in 10.0 mi SW 10.4 mph - N/A   Overcast
12:22 PM 46.4 °F 41.1 °F 44.6 °F 93% 30.14 in 10.0 mi SW 11.5 mph - N/A   Overcast
12:57 PM 46.9 °F - 44.1 °F 90% 30.16 in 10.0 mi SW 12.7 mph - N/A   Overcast
1:03 PM 46.4 °F 40.7 °F 42.8 °F 87% 30.15 in 10.0 mi SW 12.7 mph - N/A   Overcast
1:57 PM 48.9 °F - 43.0 °F 80% 30.16 in 10.0 mi SSW 12.7 mph - N/A   Overcast
2:57 PM 48.9 °F - 43.0 °F 80% 30.16 in 10.0 mi SW 12.7 mph - N/A   Overcast
3:57 PM 48.9 °F - 43.0 °F 80% 30.16 in 10.0 mi SW 11.5 mph - N/A   Overcast
4:57 PM 48.9 °F - 44.1 °F 83% 30.16 in 10.0 mi SW 15.0 mph - N/A   Overcast
5:57 PM 48.0 °F - 44.1 °F 86% 30.17 in 10.0 mi SW 11.5 mph - N/A   Overcast
6:57 PM 46.9 °F - 43.0 °F 86% 30.16 in 10.0 mi SW 15.0 mph - N/A   Overcast
7:31 PM 48.2 °F - 44.6 °F 87% 30.14 in 10.0 mi WSW 12.7 mph - N/A   Overcast
7:57 PM 48.0 °F - 44.1 °F 86% 30.15 in 10.0 mi WSW 11.5 mph - N/A   Overcast
8:39 PM 48.2 °F - 44.6 °F 87% 30.13 in 10.0 mi WSW 11.5 mph - N/A   Overcast
8:44 PM 48.2 °F - 44.6 °F 87% 30.13 in 10.0 mi WSW 12.7 mph - N/A   Overcast
8:52 PM 48.2 °F - 44.6 °F 87% 30.13 in 10.0 mi WSW 11.5 mph - N/A   Mostly Cloudy
8:57 PM 48.9 °F - 44.1 °F 83% 30.14 in 10.0 mi SW 12.7 mph - N/A   Mostly Cloudy
9:06 PM 48.2 °F - 44.6 °F 87% 30.13 in 10.0 mi WSW 13.8 mph - N/A   Mostly Cloudy
9:26 PM 48.2 °F - 44.6 °F 87% 30.13 in 10.0 mi WSW 13.8 mph - N/A   Scattered Clouds
9:57 PM 46.9 °F - 44.1 °F 90% 30.14 in 10.0 mi WSW 15.0 mph - N/A   Partly Cloudy
10:35 PM 46.4 °F 41.5 °F 44.6 °F 93% 30.14 in 10.0 mi WSW 10.4 mph - N/A   Mostly Cloudy
10:57 PM 46.0 °F 41.0 °F 43.0 °F 89% 30.15 in 10.0 mi WSW 10.4 mph - N/A   Overcast
11:57 PM 46.0 °F 41.0 °F 43.0 °F 89% 30.15 in 10.0 mi SW 10.4 mph - N/A   Overcast